Regional Weather Roundup
Issued by NWS

Home | Current Version | Previous Version | Text Only | Print | Product List | Glossary Off
Versions: 1 2 3 4 5 6 7 8 9 10 11 12 13 14 15 16 17 18 19 20 21 22 23 24 25 26 27 28 29 30 31 32 33 34 35 36 37 38 39 40 41 42 43 44 45 46 47 48 49 50

244
ASUS43 KMPX 272110
RWRMN
WEATHER ROUNDUP FOR MINNESOTA
NATIONAL WEATHER SERVICE TWIN CITIES/CHANHASSEN MN
400 PM CDT SAT MAY 27 2017


NOTE: "FAIR" INDICATES FEW OR NO CLOUDS BELOW 12,000 FEET WITH NO
SIGNIFICANT WEATHER AND/OR OBSTRUCTIONS TO VISIBILITY. N/A MEANS
CURRENT SKY AND/OR WEATHER CONDITIONS ARE NOT AVAILABLE.

MNZ060>063-068>070-272200-
   Twin Cities Metro

CITY           SKY/WX    TMP DP  RH WIND       PRES   REMARKS
TWIN CITIES    CLOUDY    69  50  50 S12       29.88F
ST PAUL        CLOUDY    68  53  58 S12       29.88F
CRYSTAL        CLOUDY    69  44  40 SW8       29.86F
BLAINE         CLOUDY    72  45  37 W7        29.88S
LAKEVILLE      CLOUDY    64  50  59 S6        29.90F
EDEN PRAIRIE   CLOUDY    69  49  48 SW7       29.88F
SOUTH ST PAUL  PTSUNNY   67  50  54 SW8       29.89F
LAKE ELMO      FAIR      68  55  64 S12       29.89F
$$
MNZ001>005-007-008-013>017-022>024-027-028-272200-
   Northwest Minnesota

CITY           SKY/WX    TMP DP  RH WIND       PRES   REMARKS
BEMIDJI        CLOUDY    72  36  27 W10G17    29.77F
HALLOCK        PTSUNNY   73  34  23 W14G22    29.70S
ROSEAU         SUNNY     72  37  28 W9G18     29.72S
WARROAD        SUNNY     72  43  35 W14G21    29.71S
THIEF RVR FALL CLOUDY    73  38  27 W14       29.75
CROOKSTON      CLOUDY    73  39  29 W9        29.74F
FOSSTON        MOSUNNY   72  37  28 W14       29.77F
DETROIT LAKES  MOSUNNY   70  37  30 W12       29.81F
MOORHEAD       MOSUNNY   75  34  22 W17G23    29.77F
PARK RAPIDS    PTSUNNY   77  38  24 W10G20    29.79F
MAHNOMEN       MOCLDY    73  36  25 W16       29.77S
$$
MNZ006-009>011-018-025>026-272200-
   North Central Minnesota

CITY           SKY/WX    TMP DP  RH WIND       PRES   REMARKS
BAUDETTE       CLOUDY    67  45  45 SW8       29.73S
FLAG ISLAND    LGT RAIN  68  45  42 CALM      29.69S
INTL FALLS     MOSUNNY   73  36  25 W14G21    29.73F
WASKISH        CLOUDY    72  46  40 SW12      29.76F
BIG FORK       CLOUDY    75  37  25 SW15G23   29.77F
LONGVILLE      PTSUNNY   70  39  32 SW8       29.80F
GRAND RAPIDS   CLOUDY    71  39  31 SW9       29.82F
CRANE LAKE     PTSUNNY   72  36  26 S8        29.78S
ORR            CLOUDY    72  34  25 SW8       29.75F
COOK           CLOUDY    72  39  30 SW9G16    29.79S
WALKER         FAIR      71  40  33 SW7       29.79S
$$
MNZ012-019>021-037-272200-
   Northeast Minnesota

CITY           SKY/WX    TMP DP  RH WIND       PRES   REMARKS
DULUTH         CLOUDY    75  40  28 SW13G21   29.82F
ELY            MOSUNNY   72  39  30 W10G17    29.79F
HIBBING        MOSUNNY   70  37  29 W7G18     29.80F
EVELETH        SUNNY     73  27  18 SW14      29.81F
DULUTH HARBOR  CLOUDY    73  45  35 SW16      29.81F
TWO HARBORS    MOSUNNY   77  46  33 W7G20     29.79F
SILVER BAY     MOSUNNY   72  43  35 S12       29.79F
GRAND MARAIS     N/A     51  43  74 SW12      29.81F
G MARAIS ARPRT CLOUDY    64  39  39 S10G16    29.84S
$$
MNZ029>031-032-039>041-046>048-054>057-064-272200-
   West Central Minnesota

CITY           SKY/WX    TMP DP  RH WIND       PRES   REMARKS
FERGUS FALLS   CLOUDY    73  39  29 W13       29.78F
WHEATON        CLOUDY    75  36  23 SW15G23   29.84F
MORRIS         CLOUDY    73  41  31 SW14G20   29.84S
ALEXANDRIA     CLOUDY    70  42  36 SW7       29.86F
ELBOW LAKE     CLOUDY    71  43  36 W13G22    29.84S
WADENA         MOSUNNY   70  41  35 SW9       29.82S
GLENWOOD       PTSUNNY   73  43  33 SW15      29.86F
APPLETON       CLOUDY    70  39  32 W8        29.86S
BENSON         CLOUDY    70  43  37 NW6       29.88S
ORTONVILLE     CLOUDY    72  37  28 W7        29.86S
MADISON        CLOUDY    72  45  37 W10G16    29.87S
WILLMAR        FAIR      73  41  31 NW5       29.88F
$$
MNZ033>034-036-042>043-049>051-058-059-272200-
   Central Minnesota

CITY           SKY/WX    TMP DP  RH WIND       PRES   REMARKS
ST CLOUD       CLOUDY    71  45  39 SW13      29.85F
SAUK CENTRE    CLOUDY    71  45  39 S10       29.86F
PAYNESVILLE    CLOUDY    72  39  30 SW10      29.88F
AITKIN         CLOUDY    70  45  40 S12       29.81F
PINE RIVER     CLOUDY    72  45  37 SW7       29.85S
BRAINERD       CLOUDY    69  40  34 SW13      29.84S
STAPLES        CLOUDY    68  41  37 S15G22    29.83F
LONG PRAIRIE   CLOUDY    68  43  40 S13G20    29.86F
LITTLE FALLS   CLOUDY    68  39  34 SW9       29.86S
LITCHFIELD     CLOUDY    73  46  38 SW3       29.87F
BUFFALO        CLOUDY    71  42  35 S7        29.88F
MAPLE LAKE     MOSUNNY   71  46  40 CALM      29.88F
HUTCHINSON     PTSUNNY   72  44  36 SW7       29.89F
$$
MNZ037-044-045-052-053-272200-
   East Central Minnesota

CITY           SKY/WX    TMP DP  RH WIND       PRES   REMARKS
PRINCETON      MOSUNNY   73  46  38 SW5       29.86F
MORA           CLOUDY    70  43  37 SW7       29.87F
CAMBRIDGE      CLOUDY    73  52  46 W6        29.85F
RUSH CITY      MOSUNNY   70  46  42 SW3       29.86F
MOOSE LAKE     PTSUNNY   73  43  33 SW13      29.82F
HINCKLEY       FAIR      72  48  43 SW10      29.85F
CLOQUET        MOSUNNY   73  36  25 SW9G21    29.83F
MCGREGOR       CLOUDY    70  45  40 S7G16     29.84S
$$
MNZ071>073-080-081-089-090-097-098-272200-
   Southwest Minnesota

CITY           SKY/WX    TMP DP  RH WIND       PRES   REMARKS
MONTEVIDEO     CLOUDY    73  43  33 SW13      29.86F
CANBY          CLOUDY    69  45  42 CALM      29.89S
MARSHALL       CLOUDY    71  42  35 SW9       29.89F
REDWOOD FALLS  CLOUDY    71  37  28 VRB6      29.87F
OLIVIA         CLOUDY    73  41  31 SW6       29.87F
PIPESTONE      CLOUDY    66  48  52 SW12      29.92S
WINDOM         MOSUNNY   70  48  46 W9        29.90F
WORTHINGTON    CLOUDY    66  49  54 VRB7      29.92F
JACKSON        CLOUDY    64  46  52 W5        29.91F
TRACY          PTSUNNY   71  44  37 CALM      29.90F
SLAYTON        PTSUNNY   68  46  46 W8        29.92F
$$
MNZ065>067-074>077-082>085-091>093-272200-
   South Central Minnesota

CITY           SKY/WX    TMP DP  RH WIND       PRES   REMARKS
MANKATO          N/A     68  43  40 VRB3      29.90F
NEW ULM        CLOUDY    70  52  52 SW8       29.89F
ST JAMES       CLOUDY    70  48  46 S7        29.91F
FAIRMONT       CLOUDY    66  50  56 NW7       29.90F
GLENCOE        CLOUDY    71  48  43 S7        29.88F
FARIBAULT      CLOUDY    68  45  42 CALM      29.90F
OWATONNA       CLOUDY    68  45  42 CALM      29.90F
WASECA         CLOUDY    64  41  42 CALM      29.91F
ALBERT LEA     DRIZZLE   68  50  52 N5        29.89F
$$
MNZ078>079-086>088-094>096-272200-
   Southeast Minnesota

CITY           SKY/WX    TMP DP  RH WIND       PRES   REMARKS
ROCHESTER      CLOUDY    67  49  52 NW8       29.89F
RED WING       CLOUDY    70  45  40 W7        29.88F
STANTON        CLOUDY    69  45  42 W5        29.89F
DODGE CENTER   CLOUDY    64  45  48 NW8       29.90F
WINONA         CLOUDY    70  48  46 N5        29.87F
AUSTIN         CLOUDY    66  48  52 NW6       29.89F
PRESTON        CLOUDY    66  46  47 N9        29.88F
$$
ABBREVIATIONS USED IN REMARKS
   TC - TEMPERATURES IN CELSIUS
  WCI - WIND CHILL INDEX
   HX - HEAT INDEX
  VSB - VISIBILITY
$$




USA.gov is the U.S. government's official web portal to all federal, state and local government web resources and services.